TimeCET,TemperatureF,Dew PointF,Humidity,Sea Level PressureIn,VisibilityMPH,Wind Direction,Wind SpeedMPH,Gust SpeedMPH,PrecipitationIn,Events,Conditions,WindDirDegrees,DateUTC
6:00 AM,26.6,26.6,100,30.18,0.1,Variable,2.3,-,N/A,Fog,Light Freezing Fog,0,2012-12-10 05:00:00
6:30 AM,26.6,26.6,100,30.18,0.1,Variable,2.3,-,N/A,Fog,Light Freezing Fog,0,2012-12-10 05:30:00
7:00 AM,26.6,26.6,100,30.15,0.1,Variable,2.3,-,N/A,Fog,Light Freezing Fog,0,2012-12-10 06:00:00
7:30 AM,26.6,26.6,100,30.18,0.1,Variable,1.2,-,N/A,Fog,Light Freezing Fog,0,2012-12-10 06:30:00
8:00 AM,26.6,26.6,100,30.18,0.1,Variable,2.3,-,N/A,Fog,Light Freezing Fog,0,2012-12-10 07:00:00
8:30 AM,26.6,26.6,100,30.18,0.1,Variable,2.3,-,N/A,Fog,Light Freezing Fog,0,2012-12-10 07:30:00
9:00 AM,26.6,26.6,100,30.18,0.1,Calm,Calm,-,N/A,Fog,Light Freezing Fog,0,2012-12-10 08:00:00
10:00 AM,26.6,26.6,100,30.18,0.1,Calm,Calm,-,N/A,Fog,Light Freezing Fog,0,2012-12-10 09:00:00
10:30 AM,28.4,28.4,100,30.21,0.1,Calm,Calm,-,N/A,Fog,Light Freezing Fog,0,2012-12-10 09:30:00
11:00 AM,28.4,28.4,100,30.21,0.1,Variable,1.2,-,N/A,Fog,Light Freezing Fog,0,2012-12-10 10:00:00
11:30 AM,30.2,30.2,100,30.21,0.1,Calm,Calm,-,N/A,Fog,Light Freezing Fog,0,2012-12-10 10:30:00
12:00 PM,30.2,30.2,100,30.21,0.1,Variable,1.2,-,N/A,Fog,Light Freezing Fog,0,2012-12-10 11:00:00
12:30 PM,30.2,30.2,100,30.18,0.1,Variable,1.2,-,N/A,Fog,Light Freezing Fog,0,2012-12-10 11:30:00
1:00 PM,30.2,30.2,100,30.18,0.1,Variable,1.2,-,N/A,Fog,Light Freezing Fog,0,2012-12-10 12:00:00
1:30 PM,30.2,30.2,100,30.18,0.1,Variable,1.2,-,N/A,Fog,Light Freezing Fog,0,2012-12-10 12:30:00
2:00 PM,32.0,32.0,100,30.15,0.1,Variable,2.3,-,N/A,Fog,Light Freezing Fog,0,2012-12-10 13:00:00
2:30 PM,32.0,32.0,100,30.15,0.1,ENE,3.5,-,N/A,Fog,Light Freezing Fog,70,2012-12-10 13:30:00
3:00 PM,32.0,32.0,100,30.15,0.1,East,3.5,-,N/A,Fog,Light Freezing Fog,80,2012-12-10 14:00:00
3:30 PM,32.0,32.0,100,30.15,0.1,Variable,1.2,-,N/A,Fog,Light Freezing Fog,0,2012-12-10 14:30:00
4:00 PM,32.0,32.0,100,30.15,0.1,Calm,Calm,-,N/A,Fog,Light Freezing Fog,0,2012-12-10 15:00:00
4:30 PM,32.0,32.0,100,30.15,0.1,Variable,1.2,-,N/A,Fog,Light Freezing Fog,0,2012-12-10 15:30:00
5:00 PM,32.0,32.0,100,30.15,0.1,Calm,Calm,-,N/A,Fog,Light Freezing Fog,0,2012-12-10 16:00:00
5:30 PM,32.0,32.0,100,30.15,0.1,Variable,1.2,-,N/A,Fog,Light Freezing Fog,0,2012-12-10 16:30:00
6:00 PM,32.0,32.0,100,30.15,0.1,Variable,2.3,-,N/A,Fog,Fog,0,2012-12-10 17:00:00
6:30 PM,32.0,32.0,100,30.15,0.1,Variable,1.2,-,N/A,Fog,Fog,0,2012-12-10 17:30:00
7:00 PM,32.0,32.0,100,30.15,0.1,NE,1.2,-,N/A,Fog,Fog,40,2012-12-10 18:00:00
7:30 PM,32.0,32.0,100,30.15,0.1,NE,3.5,-,N/A,Fog,Fog,50,2012-12-10 18:30:00
8:00 PM,32.0,32.0,100,30.15,0.1,NNE,3.5,-,N/A,Fog,Light Freezing Fog,20,2012-12-10 19:00:00
8:30 PM,32.0,32.0,100,30.15,0.2,NE,4.6,-,N/A,Fog,Light Freezing Fog,40,2012-12-10 19:30:00
9:00 PM,30.2,30.2,100,30.15,0.2,NE,5.8,-,N/A,Fog,Light Freezing Fog,40,2012-12-10 20:00:00
9:30 PM,30.2,30.2,100,30.15,0.2,ENE,3.5,-,N/A,Fog,Light Freezing Fog,60,2012-12-10 20:30:00
10:00 PM,30.2,30.2,100,30.15,0.1,NE,3.5,-,N/A,Fog,Light Freezing Fog,50,2012-12-10 21:00:00
10:30 PM,30.2,30.2,100,30.15,0.1,NE,3.5,-,N/A,Fog,Light Freezing Fog,50,2012-12-10 21:30:00